Find Orbcomm A7

NORAD ID: 25114 Int'l Des: 1997-084 Owner: ORBC Country: US Constellation: orbcomm operational
LEOCIRCULAR

实时位置

正在加载3D地球...

关于 Orbcomm A7

正在加载描述...

即将过境

Passes for default location (London). Set your location on the main map for personalized predictions.

高度历史

Loading altitude history...

两行轨道根数

1 25114U 97084C 26131.54901568 .00000708 00000-0 23437-3 0 9999
2 25114 45.0131 234.1424 0003885 102.0051 258.1237 14.46621556489001
Epoch: May 11, 2026 • Age: 15 hours

当前状态

高度 741.1 km
速度 7.48 km/s
星下点 -13.97°S, 73.12°W
发射日期 Dec 23, 1997
运行时间 28.3 years
类型 other

技术详情

分类 Payload
质量 42.00 kg
干质量 42.00 kg
总质量 42.00 kg
长度 0.20 m
直径 1.00 m
跨度 4.30 m
形状 Cyl + 2 Pan + Ant
制造商 OSCG
平台类型 Microstar
阶段状态 Unknown Transfer Status
所有者/国家 ORBC/US

Most Searched